Location: Newark
(35.6799°N, 139.7636°E)
Time: 19:38:53
(UTC+00:00)

Explorer 7 - Pass Details

Date: 10 December 2019
Orbit: 485 x 679 km, 50.3° (Epoch: 25 January)

Event Time Altitude Azimuth Distance (km) Brightness Sun altitude
Rises 10:12:04 0° 309° (NW) 3,034 11.2 -32.6°
Enters shadow 10:15:18 10° 331° (NNW) 2,145 10.0 -33.3°
Reaches altitude 10° 10:15:28 10° 333° (NNW) 2,111 - -33.3°
Maximum altitude 10:18:13 15° 7° (N) 1,792 - -33.8°
Drops below altitude 10° 10:20:57 10° 42° (NE) 2,078 - -34.4°
Sets 10:24:16 0° 66° (ENE) 2,957 - -35.1°
